星链-5595 (STARLINK-5595 )

导读

STARLINK-5595是美国太空探索技术公司(SpaceX)星链(Starlink)星座的卫星,于2023年3月3日发射。作为星链低轨互联网星座组成部分,它属于Starlink V1.5型号卫星,配备激光星间链路,可支持全球高速宽带互联网服务,能降低对地面基站依赖,扩展星链网络覆盖范围。星链计划旨在构建全球覆盖、大容量低时延天基通信系统。

Basic Information
目录编号:
55765
目录名称:
STARLINK-5595
国际标识:
2023-028AA
轨道中心:
EARTH
卫星名称:
星链-5595
卫星全名:
星链-5595 (STARLINK-5595 )
卫星状态:
在轨 (已飞行1200 天)
发射日期:
2023-03-03 UTC
国别 :
美国 (US)
星等 :
--
Orbit Information
数据来源 国际轨道数据 AOE轨道数据
星历时间 2026-06-15T06:07:38+0800
6小时前
查看轨道信息
2026-06-12T23:00:00+0800
2天前
查看轨道信息
半长轴 6950.28km 6950.167km
偏心率 0.0002463 0.0003059
轨道倾角 70.000° 70.002°
近地点辐角 264.036° 273.451°
升交点赤经 339.458° 345.248°
平近点角 96.052° 300.542°
近地点 570.431km 569.903km
远地点 573.855km 574.157km
周期 96.109分钟 96.106分钟
每日圈数 14.983021 14.983385
Detailed Information
固有亮度:
5
最大亮度:
2.5
卫星平台:
Starlink v1.5
覆盖范围:
全球
运营商:
太空探索技术公司
运营商所在国:
美国
制造商(研发单位):
太空探索技术公司
制造商所在国:
美国
使用方式:
暂无
Satellite Introduction
星链(Starlink)计划是由太空探索技术公司(SpaceX)提出的一个巨型低轨卫星互联网星座项目,计划在2019年至2024年间在太空搭建由约1.2万颗卫星组成的“星链”网络,其中1584颗将部署在地球上空550千米处的近地轨道,并从2020年开始工作。该卫星仍在工作。
2D Orbit Map
3D Orbit Map
Orbit Altitude Analysis Chart
Orbit Inclination Analysis Chart
Orbit Comprehensive Analysis Chart
View Comprehensive Chart